Back to Previous

Regional Weather Roundup

000
ASUS44 KLZK 042305
RWRLZK

WEATHER ROUNDUP FOR ARKANSAS
NATIONAL WEATHER SERVICE LITTLE ROCK AR
600 PM CDT MON MAY 04 2015

NOTE: "FAIR" INDICATES FEW OR NO CLOUDS BELOW 12,000 FEET WITH NO
SIGNIFICANT WEATHER AND/OR OBSTRUCTIONS TO VISIBILITY.

ARZ001-003-010-029-050000-
NORTHWEST ARKANSAS
  
CITY           SKY/WX    TMP DP  RH WIND       PRES   REMARKS
FAYETTEVILLE   SUNNY     77  61  57 SE12      30.08F                  
FORT SMITH     SUNNY     82  53  36 SE8       30.05F                  
HARRISON       SUNNY     78  54  43 S13       30.10F                  
BENTONVILLE    PTSUNNY   79  57  47 S6        30.09F                  
ROGERS         PTSUNNY   78  58  49 S10       30.09S                  
SILOAM SPGS    MOSUNNY   77  57  50 S10G16    30.08F                  
HIGHFILL       SUNNY     78  59  51 S14       30.07F                  
SPRINGDALE     MOSUNNY   77  55  47 S13G20    30.10F                  
$$

ARZ004-005-016-050000-
NORTH CENTRAL ARKANSAS
  
CITY           SKY/WX    TMP DP  RH WIND       PRES   REMARKS
BATESVILLE     SUNNY     81  57  44 S6        30.12S                  
FLIPPIN        SUNNY     81  55  41 S8        30.08S                  
MTN HOME       SUNNY     80  54  40 S9        30.09S                  
$$

ARZ040-041-050000-
WEST CENTRAL ARKANSAS
  
CITY           SKY/WX    TMP DP  RH WIND       PRES   REMARKS
MENA           PTSUNNY   81  57  44 SE3       30.10F                  
MOUNT IDA      PTSUNNY   77  58  51 VRB6      30.09S                  
$$

ARZ009-017-025-026-028-050000-
NORTHEAST ARKANSAS
  
CITY           SKY/WX    TMP DP  RH WIND       PRES   REMARKS
CORNING          N/A     84  54  34 S17       30.11S                  
JONESBORO      SUNNY     80  55  42 SW16      30.12R                  
NEWPORT        SUNNY     83  55  37 S12G17    30.12S                  
WALNUT RIDGE   SUNNY     82  54  36 S16       30.11S                  
BLYTHEVILLE    MOSUNNY   83  53  35 S13       30.14R                  
$$

ARZ022-023-033-042-044-050000-
CENTRAL ARKANSAS
  
CITY           SKY/WX    TMP DP  RH WIND       PRES   REMARKS
LITTLE ROCK    MOSUNNY   81  55  40 S7        30.11F                  
N LITTLE ROCK  MOSUNNY   81  58  46 S8        30.11F                  
JACKSONVILLE   SUNNY     82  58  43 S7        30.11S                  
SEARCY         SUNNY     82  58  43 S12       30.12F                  
HOT SPRINGS    SUNNY     80  56  43 SE7       30.11S                  
RUSSELLVILLE   MOSUNNY   80  55  42 S6        30.09S                  
CLINTON        FAIR      81  57  44 S7        30.11F                  
$$

ARZ036-050000-
EAST ARKANSAS
  
CITY           SKY/WX    TMP DP  RH WIND       PRES   REMARKS
WEST MEMPHIS   SUNNY     81  47  30 S12       30.13F                  
$$

ARZ050-053-066-070-073-050000-
SOUTHWEST ARKANSAS
  
CITY           SKY/WX    TMP DP  RH WIND       PRES   REMARKS
ARKADELPHIA    FAIR      82  62  50 CALM      30.10F                  
CAMDEN         SUNNY     82  54  36 NE8       30.09F                  
TEXARKANA      MOSUNNY   80  59  48 E8        30.08F                  
EL DORADO      SUNNY     81  54  39 SE10      30.10F                  
DE QUEEN       MOSUNNY   81  57  43 SE7       30.05F                  
$$

ARZ056-057-069-050000-
SOUTHEAST ARKANSAS
  
CITY           SKY/WX    TMP DP  RH WIND       PRES   REMARKS
PINE BLUFF     MOSUNNY   80  55  42 SE7       30.11F                  
STUTTGART      SUNNY     82  52  34 SE9       30.13S                  
MONTICELLO     SUNNY     82  51  34 S7        30.12S                  

$$




USA.gov is the U.S. government's official web portal to all federal, state and local government web resources and services.